CW1967 Weather Reports


time (UTC)temp
C
wind
direction
speed
KPH
gust
KPH
rain 1hr
cm
rain 24hr
cm
rain mn
cm
humidity
%
barometer
mb
20260506115204 18 144 3.2 12.9 0.00 0.00 0.00 83 1017.2
20260506115123 -17 38 0.0 0.0 0.00 0.00 0.00 1014.1
20260506114620 -17 5 0.0 0.0 0.00 0.00 0.00 1013.9
20260506114518 13 324 17.7 25.7 0.00 0.13 0.13 83 1012.4
20260506114204 18 290 3.2 11.3 0.00 0.00 0.00 84 1017.5
20260506114118 -17 15 0.0 0.0 0.00 0.00 0.00 1013.8
20260506113703 17 245 3.2 11.3 0.00 0.00 0.00 84 1017.5
20260506113616 -17 43 0.0 0.0 0.00 0.00 0.00 1013.8
20260506113203 17 143 4.8 11.3 0.00 0.00 0.00 85 1017.7
20260506113113 -17 349 0.0 0.0 0.00 0.00 0.00 1013.7
20260506113018 12 329 16.1 27.4 0.00 0.13 0.13 85 1012.5
20260506112704 17 149 4.8 14.5 0.00 0.00 0.00 85 1017.5
20260506112609 -17 330 0.0 0.0 0.00 0.00 0.00 1013.6
20260506112204 17 155 3.2 8.0 0.00 0.00 0.00 86 1017.2
20260506112107 -17 21 0.0 0.0 0.00 0.00 0.00 1013.5
20260506111704 17 160 4.8 12.9 0.00 0.00 0.00 87 1017.3
20260506111604 -17 324 0.0 0.0 0.00 0.00 0.00 1013.4
20260506111518 12 324 16.1 25.7 0.00 0.13 0.13 87 1012.5
20260506111204 17 156 3.2 8.0 0.00 0.00 0.00 87 1017.1
20260506111102 -17 314 0.0 0.0 0.00 0.00 0.00 1013.4
20260506110704 17 276 3.2 8.0 0.00 0.00 0.00 87 1017.1
20260506110559 -17 34 0.0 0.0 0.00 0.00 0.00 1013.2
20260506110203 16 244 1.6 9.7 0.00 0.00 0.00 88 1017.2
20260506110056 -17 315 1.6 1.6 0.00 0.00 0.00 1013.0
20260506110014 12 334 12.9 20.9 0.00 0.13 0.13 86 1012.4
20260506105704 16 249 3.2 11.3 0.00 0.00 0.00 89 1017.0
20260506105553 -17 9 0.0 0.0 0.00 0.00 0.00 1013.2
20260506105204 16 305 3.2 11.3 0.00 0.00 0.00 89 1017.1
20260506105050 -17 27 0.0 0.0 0.00 0.00 0.00 1013.0
20260506104704 16 173 1.6 8.0 0.00 0.00 0.00 89 1017.0
20260506104548 -17 20 0.0 0.0 0.00 0.00 0.00 1013.0
20260506104513 12 351 14.5 25.7 0.00 0.28 0.13 86 1012.3
20260506104204 16 120 4.8 11.3 0.00 0.00 0.00 89 1017.1
20260506104045 -17 95 1.6 1.6 0.00 0.00 0.00 1013.0
20260506103704 16 150 3.2 8.0 0.00 0.00 0.00 90 1017.1
20260506103542 -17 290 0.0 0.0 0.00 0.00 0.00 1012.9
20260506103204 16 212 4.8 12.9 0.00 0.00 0.00 90 1017.1
20260506103039 -17 1 0.0 0.0 0.00 0.00 0.00 1012.8
20260506103019 12 344 12.9 25.7 0.00 0.28 0.13 86 1012.1
20260506102537 -17 355 0.0 0.0 0.00 0.00 0.00 1012.7
20260506102204 16 54 1.6 9.7 0.00 0.00 0.00 90 1017.0
20260506102034 -17 238 0.0 1.6 0.00 0.00 0.00 1012.7
20260506101704 16 105 3.2 4.8 0.00 0.00 0.00 90 1016.9
20260506101531 -17 8 0.0 0.0 0.00 0.00 0.00 1012.4
20260506101512 12 342 11.3 24.1 0.00 0.28 0.13 86 1012.1
20260506101203 16 188 3.2 11.3 0.00 0.00 0.00 90 1016.9
20260506101028 -17 265 1.6 1.6 0.00 0.00 0.00 1012.5
20260506100526 -17 112 3.2 4.8 0.00 0.00 0.00 1012.5
20260506100024 -17 59 0.0 1.6 0.00 0.00 0.00 1012.4
20260506100010 12 357 14.5 27.4 0.00 0.28 0.13 86 1012.0
20260506095704 15 118 3.2 8.0 0.00 0.00 0.00 89 1016.9
20260506095523 -17 86 1.6 3.2 0.00 0.00 0.00 1012.2
20260506095018 -17 23 0.0 0.0 0.00 0.00 0.00 1012.3
20260506094704 15 93 3.2 8.0 0.00 0.00 0.00 89 1017.0
20260506094517 -17 43 0.0 1.6 0.00 0.00 0.00 1012.4
20260506094510 12 5 9.7 24.1 0.00 0.28 0.13 87 1011.9
20260506094204 15 31 3.2 8.0 0.00 0.00 0.00 89 1017.0
20260506094014 -17 185 0.0 0.0 0.00 0.00 0.00 1012.3
20260506093704 16 55 1.6 9.7 0.00 0.00 0.00 89 1017.0
20260506093512 -17 274 1.6 3.2 0.00 0.00 0.00 1012.3
20260506093203 16 78 1.6 4.8 0.00 0.00 0.00 88 1017.0
20260506093013 12 334 14.5 25.7 0.00 0.28 0.13 87 1011.7
20260506093009 -17 357 0.0 0.0 0.00 0.00 0.00 1012.2
20260506092704 15 62 3.2 4.8 0.00 0.00 0.00 89 1017.0
20260506092507 -17 204 1.6 3.2 0.00 0.00 0.00 1012.3
20260506092204 16 102 3.2 8.0 0.00 0.00 0.00 88 1017.3
20260506092003 -17 188 0.0 1.6 0.00 0.00 0.00 1012.3
20260506091704 16 61 1.6 4.8 0.00 0.00 0.00 88 1017.4
20260506091508 12 334 14.5 24.1 0.00 0.28 0.13 88 1011.6
20260506091503 -17 276 0.0 1.6 0.00 0.00 0.00 1012.5
20260506091203 16 79 3.2 4.8 0.00 0.00 0.00 88 1017.4
20260506090959 -17 141 0.0 0.0 0.00 0.00 0.00 1012.6
20260506090704 16 274 3.2 9.7 0.00 0.00 0.00 88 1017.3
20260506090457 -17 160 1.6 1.6 0.00 0.00 0.00 1012.4
20260506090203 16 149 4.8 12.9 0.00 0.00 0.00 88 1017.2
20260506090007 11 2 14.5 22.5 0.00 0.28 0.13 90 1011.5
20260506085953 -17 24 0.0 0.0 0.00 0.00 0.00 1012.4
20260506085703 16 210 1.6 9.7 0.00 0.00 0.00 88 1017.5
20260506085450 -17 21 0.0 0.0 0.00 0.00 0.00 1012.5
20260506085203 16 99 3.2 9.7 0.00 0.00 0.00 88 1017.4
20260506084946 -17 27 0.0 0.0 0.00 0.00 0.00 1012.7
20260506084704 16 103 1.6 8.0 0.00 0.00 0.00 88 1017.5
20260506084511 11 334 12.9 24.1 0.00 0.28 0.13 90 1011.4
20260506084443 -17 350 0.0 0.0 0.00 0.00 0.00 1012.7
20260506084204 16 229 1.6 4.8 0.00 0.00 0.00 88 1017.3
20260506083939 -17 10 0.0 0.0 0.00 0.00 0.00 1012.6
20260506083703 16 141 1.6 4.8 0.00 0.00 0.00 88 1017.4
20260506083436 -17 25 0.0 0.0 0.00 0.00 0.00 1012.8
20260506083203 16 140 1.6 8.0 0.00 0.00 0.00 88 1017.3
20260506083006 11 22 16.1 24.1 0.00 0.28 0.13 90 1011.4
20260506082934 -17 12 0.0 0.0 0.00 0.00 0.00 1012.7
20260506082703 16 269 1.6 4.8 0.00 0.00 0.00 87 1017.3
20260506082431 -17 18 0.0 0.0 0.00 0.00 0.00 1012.9
20260506082204 16 230 3.2 9.7 0.00 0.00 0.00 87 1017.4
20260506081926 -17 334 0.0 0.0 0.00 0.00 0.00 1012.8
20260506081704 16 281 4.8 8.0 0.00 0.00 0.00 87 1017.3
20260506081508 11 3 16.1 25.7 0.00 0.28 0.13 91 1011.3
20260506081425 -17 27 0.0 0.0 0.00 0.00 0.00 1012.9
20260506081204 16 21 3.2 4.8 0.00 0.00 0.00 87 1017.4
20260506080922 -17 28 0.0 0.0 0.00 0.00 0.00 1012.9
20260506080703 16 19 0.0 4.8 0.00 0.00 0.00 87 1017.2
20260506080418 -17 39 0.0 0.0 0.00 0.00 0.00 1012.7
20260506080203 16 272 4.8 9.7 0.00 0.00 0.00 87 1017.2
20260506073403 -17 353 0.0 0.0 0.00 0.00 0.00 1013.1
20260506073203 16 26 1.6 4.8 0.00 0.00 0.00 86 1017.2
20260506073007 10 344 11.3 22.5 0.00 0.28 0.13 91 1011.1
20260506072900 -17 19 0.0 0.0 0.00 0.00 0.00 1013.2
20260506072703 16 326 3.2 8.0 0.00 0.00 0.00 86 1017.2
20260506072357 -17 9 0.0 0.0 0.00 0.00 0.00 1013.1
20260506072204 16 177 1.6 9.7 0.00 0.00 0.00 86 1017.2
20260506071854 -17 35 0.0 0.0 0.00 0.00 0.00 1013.0
20260506071704 16 13 1.6 8.0 0.00 0.00 0.00 86 1017.0
20260506071600 10 334 14.5 20.9 0.00 0.28 0.13 91 1010.9
20260506071352 -17 40 0.0 0.0 0.00 0.00 0.00 1013.2
20260506070849 -17 293 0.0 0.0 0.00 0.00 0.00 1013.2
20260506070346 -17 113 1.6 1.6 0.00 0.00 0.00 1013.1
20260506062323 -17 335 0.0 1.6 0.00 0.00 0.00 1013.5
20260506062203 17 283 3.2 9.7 0.00 0.00 0.00 84 1017.5
20260506061819 -17 36 1.6 1.6 0.00 0.00 0.00 1013.6
20260506061704 17 238 4.8 11.3 0.00 0.00 0.00 83 1017.5
20260506061603 10 358 16.1 24.1 0.00 0.28 0.13 91 1010.4
20260506061316 -17 54 1.6 1.6 0.00 0.00 0.00 1013.5
20260506061203 17 336 4.8 8.0 0.00 0.00 0.00 83 1017.7
20260506060814 -17 159 0.0 0.0 0.00 0.00 0.00 1013.6
20260506060704 17 285 4.8 9.7 0.00 0.00 0.00 83 1017.7
20260506060312 -17 255 1.6 1.6 0.00 0.00 0.00 1013.7
20260506051244 -17 30 0.0 0.0 0.00 0.00 0.00 1014.3
20260506051204 17 341 4.8 14.5 0.00 0.00 0.00 81 1018.4
20260506050742 -17 14 0.0 0.0 0.00 0.00 0.00 1014.3
20260506050703 17 293 4.8 9.7 0.00 0.00 0.00 81 1018.3
20260506050239 -17 19 0.0 0.0 0.00 0.00 0.00 1014.1
20260506050203 17 140 4.8 19.3 0.00 0.00 0.00 81 1018.4
20260506044730 -17 44 0.0 0.0 0.00 0.00 0.00 1014.4
20260506044703 17 110 1.6 11.3 0.00 0.00 0.00 80 1018.4
20260506044542 10 338 11.3 19.3 0.00 0.28 0.13 90 1009.5
20260506044227 -17 33 0.0 0.0 0.00 0.00 0.00 1014.3
20260506044203 17 261 4.8 9.7 0.00 0.00 0.00 80 1018.4
20260506043724 -17 43 0.0 0.0 0.00 0.00 0.00 1014.3
20260506043221 -17 1 0.0 0.0 0.00 0.00 0.00 1014.4
20260506043204 17 81 1.6 8.0 0.00 0.00 0.00 80 1018.4
20260506043040 11 359 8.0 19.3 0.00 0.28 0.13 90 1009.5
20260506042720 -17 25 0.0 0.0 0.00 0.00 0.00 1014.3
20260506042704 17 282 4.8 12.9 0.00 0.00 0.00 79 1018.6
20260506042218 -17 23 0.0 0.0 0.00 0.00 0.00 1014.3
20260506042204 18 335 4.8 8.0 0.00 0.00 0.00 79 1018.6
20260506041716 -17 28 0.0 0.0 0.00 0.00 0.00 1014.6
20260506041704 18 172 3.2 8.0 0.00 0.00 0.00 79 1018.6
20260506041544 10 13 8.0 24.1 0.00 0.28 0.13 90 1009.4
20260506041213 -17 27 0.0 0.0 0.00 0.00 0.00 1014.6
20260506041203 18 285 4.8 8.0 0.00 0.00 0.00 79 1018.6
20260506040710 -17 19 0.0 0.0 0.00 0.00 0.00 1014.6
20260506040207 -17 26 0.0 0.0 0.00 0.00 0.00 1014.8
20260506040036 10 342 11.3 17.7 0.00 0.28 0.13 91 1009.4
20260506035704 18 305 3.2 11.3 0.00 0.00 0.00 77 1018.5
20260506035204 18 164 3.2 8.0 0.00 0.00 0.00 77 1018.5
20260506035201 -17 25 0.0 0.0 0.00 0.00 0.00 1014.8
20260506034703 18 281 3.2 19.3 0.00 0.00 0.00 77 1018.4
20260506034658 -17 17 0.0 0.0 0.00 0.00 0.00 1014.9
20260506034535 11 350 8.0 17.7 0.03 0.28 0.13 90 1009.3
20260506034155 -17 15 0.0 0.0 0.00 0.00 0.00 1014.8
20260506033704 18 282 8.0 14.5 0.00 0.00 0.00 76 1018.2
20260506033652 -17 23 0.0 0.0 0.00 0.00 0.00 1014.8
20260506033204 18 292 4.8 12.9 0.00 0.00 0.00 76 1018.3
20260506033149 -17 34 0.0 0.0 0.00 0.00 0.00 1014.8
20260506033035 11 4 11.3 22.5 0.13 0.28 0.13 90 1009.4
20260506032646 -17 24 0.0 0.0 0.00 0.00 0.00 1014.9
20260506032203 18 150 4.8 14.5 0.00 0.00 0.00 75 1018.3
20260506032143 -17 16 0.0 0.0 0.00 0.00 0.00 1014.9
20260506031703 18 171 4.8 14.5 0.00 0.00 0.00 75 1018.4
20260506031640 -17 16 0.0 0.0 0.00 0.00 0.00 1014.9
20260506031533 11 7 11.3 22.5 0.13 0.28 0.13 90 1009.3
20260506031204 19 261 4.8 20.9 0.00 0.00 0.00 74 1018.3
20260506031137 -17 28 0.0 0.0 0.00 0.00 0.00 1014.7
20260506030636 -17 23 0.0 0.0 0.00 0.00 0.00 1014.7
20260506030204 19 129 8.0 19.3 0.00 0.00 0.00 74 1018.3
20260506030132 -17 19 0.0 0.0 0.00 0.00 0.00 1014.9
20260506030033 11 344 12.9 25.7 0.13 0.28 0.13 90 1009.3
20260506025703 19 179 4.8 14.5 0.00 0.00 0.00 74 1018.3
20260506025629 -17 23 0.0 0.0 0.00 0.00 0.00 1014.8
20260506025204 19 166 8.0 25.7 0.00 0.00 0.00 74 1018.2
20260506025125 -17 31 0.0 0.0 0.00 0.00 0.00 1014.7
20260506024704 19 302 4.8 12.9 0.00 0.00 0.00 74 1018.4
20260506024623 -17 33 0.0 0.0 0.00 0.00 0.00 1014.8
20260506024528 11 349 11.3 20.9 0.10 0.25 0.10 89 1009.3
20260506024204 19 277 3.2 8.0 0.00 0.00 0.00 74 1018.3
20260506024119 -17 33 0.0 0.0 0.00 0.00 0.00 1014.8
20260506023615 -17 34 0.0 0.0 0.00 0.00 0.00 1014.8
20260506023204 19 276 6.4 12.9 0.00 0.00 0.00 73 1018.3
20260506023113 -17 31 0.0 0.0 0.00 0.00 0.00 1014.7
20260506023026 11 18 8.0 17.7 0.00 0.15 0.00 89 1009.2
20260506022704 19 200 3.2 12.9 0.00 0.00 0.00 73 1018.2
20260506022610 -17 25 0.0 0.0 0.00 0.00 0.00 1014.5
20260506022203 19 119 3.2 16.1 0.00 0.00 0.00 72 1018.4
20260506022107 -17 32 0.0 0.0 0.00 0.00 0.00 1014.5
20260506021704 19 235 4.8 9.7 0.00 0.00 0.00 72 1018.2
20260506021605 -17 32 0.0 0.0 0.00 0.00 0.00 1014.6
20260506021204 19 40 4.8 14.5 0.00 0.00 0.00 72 1018.3
20260506021102 -17 34 0.0 0.0 0.00 0.00 0.00 1014.6
20260506020703 20 317 6.4 11.3 0.00 0.00 0.00 71 1018.3
20260506020559 -17 6 0.0 0.0 0.00 0.00 0.00 1014.5
20260506020204 20 163 6.4 25.7 0.00 0.00 0.00 71 1018.2
20260506020056 -17 26 0.0 0.0 0.00 0.00 0.00 1014.5
20260506020040 11 257 0.0 1.6 0.00 0.15 0.00 88 1009.1
20260506015704 20 145 6.4 14.5 0.00 0.00 0.00 71 1018.3
20260506015554 -17 22 0.0 0.0 0.00 0.00 0.00 1014.4
20260506015204 20 163 6.4 22.5 0.00 0.00 0.00 70 1018.2
20260506015050 -17 12 0.0 0.0 0.00 0.00 0.00 1014.6
20260506014548 -17 334 0.0 0.0 0.00 0.00 0.00 1014.5
20260506014523 11 257 0.0 0.0 0.00 0.15 0.00 87 1009.2
20260506014204 20 251 6.4 24.1 0.00 0.00 0.00 70 1018.2
20260506014043 -17 28 0.0 0.0 0.00 0.00 0.00 1014.6
20260506013704 20 240 4.8 14.5 0.00 0.00 0.00 70 1018.1
20260506013542 -17 21 0.0 0.0 0.00 0.00 0.00 1014.3
20260506013204 20 182 4.8 11.3 0.00 0.00 0.00 69 1017.9
20260506013038 -17 16 0.0 0.0 0.00 0.00 0.00 1014.4
20260506013021 11 257 0.0 3.2 0.00 0.15 0.00 87 1009.3
20260506012534 -17 15 0.0 0.0 0.00 0.00 0.00 1014.4
20260506012204 20 161 8.0 20.9 0.00 0.00 0.00 70 1017.9
20260506012031 -17 12 0.0 0.0 0.00 0.00 0.00 1014.4
20260506011703 20 305 3.2 9.7 0.00 0.00 0.00 69 1017.9
20260506011529 -17 18 0.0 0.0 0.00 0.00 0.00 1014.3
20260506011523 11 257 1.6 4.8 0.00 0.15 0.00 87 1009.5
20260506011204 20 251 4.8 14.5 0.00 0.00 0.00 69 1017.8
20260506011025 -17 5 0.0 0.0 0.00 0.00 0.00 1014.4
20260506010703 20 169 6.4 14.5 0.00 0.00 0.00 69 1017.8
20260506010525 -17 15 0.0 0.0 0.00 0.00 0.00 1014.2
20260506010204 20 131 4.8 11.3 0.00 0.00 0.00 69 1017.7
20260506010022 11 285 1.6 6.4 0.00 0.15 0.00 87 1009.7
20260506005518 -17 347 0.0 1.6 0.00 0.00 0.00 1014.2
20260506005204 21 225 4.8 14.5 0.00 0.00 0.00 68 1017.5
20260506005013 -17 33 0.0 0.0 0.00 0.00 0.00 1014.2
20260506004704 21 136 4.8 14.5 0.00 0.00 0.00 68 1017.5
20260506004523 11 283 3.2 9.7 0.00 0.15 0.00 87 1009.9
20260506004511 -17 290 1.6 1.6 0.00 0.00 0.00 1014.2
20260506004204 21 97 8.0 16.1 0.00 0.00 0.00 68 1017.4
20260506004008 -17 25 0.0 1.6 0.00 0.00 0.00 1014.0
20260506003703 21 108 6.4 12.9 0.00 0.00 0.00 67 1017.4
20260506003504 -17 71 0.0 0.0 0.00 0.00 0.00 1014.0
20260506003203 21 320 4.8 16.1 0.00 0.00 0.00 67 1017.2
20260506003018 11 283 3.2 8.0 0.00 0.15 0.00 87 1010.0
20260506003000 -17 177 3.2 3.2 0.00 0.00 0.00 1014.1
20260506002704 21 104 6.4 12.9 0.00 0.00 0.00 67 1017.2
20260506002456 -17 353 1.6 1.6 0.00 0.00 0.00 1013.8
20260506002203 21 151 6.4 14.5 0.00 0.00 0.00 66 1017.2
20260506001952 -17 78 1.6 1.6 0.00 0.00 0.00 1013.8
20260506001703 21 118 8.0 14.5 0.00 0.00 0.00 66 1017.2
20260506001513 11 261 3.2 8.0 0.00 0.15 0.00 86 1010.0
20260506001449 -17 226 3.2 3.2 0.00 0.00 0.00 1013.8
20260506001203 21 28 4.8 19.3 0.00 0.00 0.00 66 1017.0
20260506000946 -17 32 0.0 1.6 0.00 0.00 0.00 1014.0
20260506000703 21 266 3.2 11.3 0.00 0.00 0.00 66 1017.2
20260506000445 -17 186 3.2 3.2 0.00 0.00 0.00 1014.0
20260506000205 22 26 4.8 9.7 0.00 0.00 0.00 65 1017.1
20260506000011 11 279 3.2 8.0 0.00 0.15 0.00 87 1010.1
20260505235940 -17 133 4.8 4.8 0.00 0.00 0.00 1014.1
20260505235704 22 279 8.0 14.5 0.00 0.00 0.00 65 1017.0
20260505235439 -17 172 1.6 3.2 0.00 0.00 0.00 1013.9
20260505235204 22 158 8.0 19.3 0.00 0.00 0.00 65 1016.9
20260505234935 -17 98 1.6 3.2 0.00 0.00 0.00 1013.9
20260505234704 22 351 4.8 12.9 0.00 0.00 0.00 64 1016.9
20260505234512 11 278 4.8 12.9 0.00 0.15 0.00 87 1010.3
20260505234433 -17 153 0.0 0.0 0.00 0.00 0.00 1013.9
20260505234204 22 109 4.8 14.5 0.00 0.00 0.00 64 1016.8
20260505233929 -17 242 1.6 3.2 0.00 0.00 0.00 1014.2
20260505233427 -17 226 1.6 3.2 0.00 0.00 0.00 1014.4
20260505233008 12 267 6.4 14.5 0.00 0.15 0.00 88 1010.2
20260505232924 -17 244 1.6 3.2 0.00 0.00 0.00 1014.2
20260505232703 22 213 8.0 20.9 0.00 0.00 0.00 63 1016.6
20260505232422 -17 165 3.2 3.2 0.00 0.00 0.00 1014.2
20260505232204 23 145 6.4 20.9 0.00 0.00 0.00 62 1016.9
20260505231919 -17 21 1.6 1.6 0.00 0.00 0.00 1014.0
20260505231704 23 293 4.8 24.1 0.00 0.00 0.00 62 1016.8
20260505231510 12 270 6.4 12.9 0.00 0.15 0.00 88 1010.2
20260505231416 -17 223 6.4 8.0 0.00 0.00 0.00 1014.0
20260505231203 23 155 4.8 16.1 0.00 0.00 0.00 62 1016.6
20260505230914 -17 245 1.6 3.2 0.00 0.00 0.00 1014.0
20260505230704 23 171 4.8 14.5 0.00 0.00 0.00 61 1016.5
20260505230412 -17 104 3.2 4.8 0.00 0.00 0.00 1013.9
20260505230204 23 319 8.0 24.1 0.00 0.00 0.00 62 1016.5
20260505230015 12 286 3.2 12.9 0.00 0.15 0.00 87 1010.2
20260505225908 -17 218 3.2 3.2 0.00 0.00 0.00 1013.8
20260505225703 23 160 8.0 22.5 0.00 0.00 0.00 61 1016.6
20260505225405 -17 221 4.8 8.0 0.00 0.00 0.00 1013.9
20260505225203 23 180 4.8 14.5 0.00 0.00 0.00 60 1016.5
20260505224901 -17 201 4.8 8.0 0.00 0.00 0.00 1013.9
20260505224704 23 145 4.8 20.9 0.00 0.00 0.00 61 1016.5
20260505224504 12 301 6.4 14.5 0.00 0.15 0.00 87 1010.3
20260505224358 -17 185 6.4 8.0 0.00 0.00 0.00 1014.1
20260505224204 23 267 4.8 19.3 0.00 0.00 0.00 60 1016.4
20260505223855 -17 140 1.6 1.6 0.00 0.00 0.00 1014.0
20260505223352 -17 265 3.2 3.2 0.00 0.00 0.00 1013.7
20260505223203 24 161 8.0 14.5 0.00 0.00 0.00 59 1016.5
20260505223001 12 260 8.0 16.1 0.00 0.15 0.00 86 1010.5
20260505222848 -17 37 0.0 1.6 0.00 0.00 0.00 1013.7
20260505222704 24 137 4.8 9.7 0.00 0.00 0.00 59 1016.4
20260505222344 -17 31 1.6 1.6 0.00 0.00 0.00 1013.9
20260505222203 24 155 4.8 12.9 0.00 0.00 0.00 58 1016.4
20260505221841 -17 192 4.8 9.7 0.00 0.00 0.00 1013.8
20260505221704 24 195 6.4 24.1 0.00 0.00 0.00 57 1016.5
20260505221601 12 267 4.8 12.9 0.00 0.15 0.00 86 1010.6
20260505221338 -17 216 3.2 3.2 0.00 0.00 0.00 1013.8
20260505221204 25 196 6.4 22.5 0.00 0.00 0.00 57 1016.5
20260505220835 -17 265 1.6 1.6 0.00 0.00 0.00 1013.6
20260505220704 25 10 6.4 20.9 0.00 0.00 0.00 56 1016.6
20260505220332 -17 9 3.2 4.8 0.00 0.00 0.00 1013.6
20260505220205 25 75 4.8 14.5 0.00 0.00 0.00 55 1016.5
20260505220106 13 264 4.8 11.3 0.00 0.15 0.00 86 1010.8
20260505215830 -17 265 4.8 4.8 0.00 0.00 0.00 1013.4
20260505215704 25 159 11.3 24.1 0.00 0.00 0.00 54 1016.3
20260505215328 -17 279 1.6 3.2 0.00 0.00 0.00 1013.5
20260505214826 -17 252 3.2 3.2 0.00 0.00 0.00 1013.6
20260505214704 25 111 8.0 33.8 0.00 0.00 0.00 54 1016.3
20260505214604 12 262 6.4 12.9 0.00 0.15 0.15 86 1010.9
20260505214323 -17 230 3.2 3.2 0.00 0.00 0.00 1013.6
20260505214204 25 158 8.0 27.4 0.00 0.00 0.00 53 1016.2
20260505213819 -17 154 6.4 11.3 0.00 0.00 0.00 1013.6
20260505213317 -17 154 4.8 8.0 0.00 0.00 0.00 1013.8
20260505213203 26 102 9.7 19.3 0.00 0.00 0.00 52 1016.1
20260505213052 12 260 4.8 11.3 0.00 0.15 0.15 85 1011.1
20260505212813 -17 261 6.4 9.7 0.00 0.00 0.00 1013.8
20260505212704 26 9 9.7 20.9 0.00 0.00 0.00 51 1016.1
20260505212310 -17 346 1.6 3.2 0.00 0.00 0.00 1013.7
20260505212203 26 157 9.7 24.1 0.00 0.00 0.00 50 1016.2
20260505211806 -17 167 1.6 1.6 0.00 0.00 0.00 1013.7
20260505211704 26 96 8.0 24.1 0.00 0.00 0.00 49 1016.0
20260505211626 12 300 3.2 16.1 0.00 0.15 0.15 84 1011.3
20260505211304 -17 6 3.2 4.8 0.00 0.00 0.00 1013.6
20260505211204 27 2 8.0 19.3 0.00 0.00 0.00 48 1015.9
20260505210800 -17 260 6.4 9.7 0.00 0.00 0.00 1013.7
20260505210704 27 128 8.0 20.9 0.00 0.00 0.00 48 1016.0
20260505210258 -17 251 4.8 8.0 0.00 0.00 0.00 1013.8
20260505210204 27 351 3.2 16.1 0.00 0.00 0.00 47 1015.9
20260505210051 12 271 4.8 17.7 0.00 0.15 0.15 83 1011.4
20260505205754 -17 230 8.0 11.3 0.00 0.00 0.00 1013.8
20260505205704 27 127 3.2 11.3 0.00 0.00 0.00 46 1016.1
20260505205253 -17 24 1.6 3.2 0.00 0.00 0.00 1013.8
20260505205203 27 119 6.4 19.3 0.00 0.00 0.00 47 1015.9
20260505204749 -17 34 1.6 1.6 0.00 0.00 0.00 1013.8
20260505204703 27 154 4.8 20.9 0.00 0.00 0.00 47 1016.1
20260505204600 13 262 9.7 20.9 0.00 0.15 0.15 82 1011.4
20260505204247 -17 176 4.8 8.0 0.00 0.00 0.00 1013.9
20260505203744 -17 70 1.6 1.6 0.00 0.00 0.00 1013.9
20260505203704 27 154 11.3 22.5 0.00 0.00 0.00 47 1015.9
20260505203241 -17 204 6.4 8.0 0.00 0.00 0.00 1013.8
20260505203204 27 114 8.0 20.9 0.00 0.00 0.00 47 1016.0
20260505203054 13 255 11.3 20.9 0.00 0.15 0.15 81 1011.4
20260505202736 -17 192 8.0 9.7 0.00 0.00 0.00 1014.0
20260505202704 27 20 3.2 19.3 0.00 0.00 0.00 47 1016.0
20260505202233 -17 23 1.6 3.2 0.00 0.00 0.00 1014.0
20260505202203 27 315 9.7 27.4 0.00 0.00 0.00 45 1016.2
20260505201729 -17 293 1.6 3.2 0.00 0.00 0.00 1014.2
20260505201703 27 186 11.3 22.5 0.00 0.00 0.00 45 1016.3
20260505201550 13 254 8.0 20.9 0.00 0.15 0.15 81 1011.3
20260505201227 -17 151 3.2 3.2 0.00 0.00 0.00 1014.2
20260505201204 27 189 8.0 20.9 0.00 0.00 0.00 43 1016.4
20260505200726 -17 187 8.0 11.3 0.00 0.00 0.00 1014.2
20260505200703 27 141 9.7 22.5 0.00 0.00 0.00 43 1016.5
20260505200222 -17 237 4.8 8.0 0.00 0.00 0.00 1014.5
20260505200203 27 313 8.0 19.3 0.00 0.00 0.00 43 1016.6
20260505200050 13 271 12.9 22.5 0.00 0.15 0.15 82 1011.2
20260505195717 -17 158 4.8 9.7 0.00 0.00 0.00 1014.4
20260505195704 27 90 9.7 16.1 0.00 0.00 0.00 43 1016.5
20260505195215 -17 294 3.2 4.8 0.00 0.00 0.00 1014.5
20260505194713 -17 294 4.8 8.0 0.00 0.00 0.00 1014.6
20260505194703 27 150 4.8 14.5 0.00 0.00 0.00 43 1016.9
20260505194549 13 269 9.7 20.9 0.00 0.15 0.15 82 1011.1
20260505194209 -17 177 4.8 4.8 0.00 0.00 0.00 1014.5
20260505194204 27 255 11.3 24.1 0.00 0.00 0.00 43 1016.8
20260505193705 -17 276 3.2 3.2 0.00 0.00 0.00 1014.6
20260505193703 27 295 8.0 22.5 0.00 0.00 0.00 42 1017.0
20260505193203 27 184 9.7 22.5 0.00 0.00 0.00 43 1017.0
20260505193048 13 257 11.3 22.5 0.00 0.15 0.15 82 1011.1
20260505192704 27 133 4.8 20.9 0.00 0.00 0.00 42 1017.1
20260505192701 -17 239 6.4 8.0 0.00 0.00 0.00 1014.6
20260505192203 27 288 9.7 20.9 0.00 0.00 0.00 42 1017.1
20260505192158 -17 259 4.8 9.7 0.00 0.00 0.00 1014.6
20260505191704 27 2 9.7 22.5 0.00 0.00 0.00 43 1017.2
20260505191656 -17 340 11.3 16.1 0.00 0.00 0.00 1014.6
20260505191549 13 268 9.7 19.3 0.00 0.15 0.15 80 1011.1
20260505191154 -17 236 6.4 8.0 0.00 0.00 0.00 1014.5
20260505190650 -17 255 4.8 4.8 0.00 0.00 0.00 1014.6
20260505190204 27 168 9.7 20.9 0.00 0.00 0.00 43 1017.3
20260505190150 -17 264 4.8 4.8 0.00 0.00 0.00 1014.6
20260505190047 13 259 11.3 22.5 0.00 0.15 0.15 79 1011.0
20260505185704 27 145 9.7 24.1 0.00 0.00 0.00 43 1017.3
20260505185647 -17 348 6.4 9.7 0.00 0.00 0.00 1014.9
20260505185204 27 265 9.7 25.7 0.00 0.00 0.00 43 1017.4
20260505185143 -17 205 6.4 8.0 0.00 0.00 0.00 1014.9
20260505184703 27 339 8.0 24.1 0.00 0.00 0.00 43 1017.3
20260505184639 -17 49 1.6 1.6 0.00 0.00 0.00 1015.1
20260505184547 14 276 14.5 22.5 0.00 0.15 0.15 76 1011.0
20260505184204 27 302 8.0 22.5 0.00 0.00 0.00 44 1017.4
20260505184136 -17 194 4.8 4.8 0.00 0.00 0.00 1015.1
20260505183704 27 310 11.3 35.4 0.00 0.00 0.00 43 1017.3
20260505183633 -17 174 4.8 8.0 0.00 0.00 0.00 1015.1
20260505183204 27 249 8.0 16.1 0.00 0.00 0.00 42 1017.4
20260505183131 -17 172 8.0 9.7 0.00 0.00 0.00 1015.0
20260505183047 15 253 11.3 22.5 0.00 0.15 0.15 76 1011.1
20260505182704 27 246 8.0 20.9 0.00 0.00 0.00 40 1017.4
20260505182627 -17 19 1.6 1.6 0.00 0.00 0.00 1015.0
20260505182203 27 221 4.8 12.9 0.00 0.00 0.00 41 1017.4
20260505182124 -17 154 1.6 1.6 0.00 0.00 0.00 1015.1
20260505181703 27 228 4.8 20.9 0.00 0.00 0.00 41 1017.6
20260505181620 -17 155 3.2 4.8 0.00 0.00 0.00 1015.1
20260505181606 15 300 8.0 24.1 0.00 0.15 0.15 75 1011.2
20260505181204 27 242 9.7 22.5 0.00 0.00 0.00 41 1017.6
20260505181118 -17 350 0.0 1.6 0.00 0.00 0.00 1015.1
20260505180703 27 121 9.7 20.9 0.00 0.00 0.00 40 1017.5
20260505180614 -17 339 6.4 9.7 0.00 0.00 0.00 1015.3
20260505180204 27 278 8.0 20.9 0.00 0.00 0.00 42 1017.7
20260505180112 -17 95 3.2 4.8 0.00 0.00 0.00 1015.3
20260505180100 15 259 12.9 22.5 0.00 0.15 0.15 76 1011.1
20260505175703 27 303 8.0 19.3 0.00 0.00 0.00 43 1017.6
20260505175607 -17 249 8.0 9.7 0.00 0.00 0.00 1015.2
20260505175204 27 129 6.4 16.1 0.00 0.00 0.00 43 1017.6
20260505175104 -17 106 4.8 8.0 0.00 0.00 0.00 1015.4
20260505174703 27 250 8.0 24.1 0.00 0.00 0.00 40 1017.6
20260505174601 -17 243 6.4 8.0 0.00 0.00 0.00 1015.2
20260505174546 15 267 9.7 22.5 0.00 0.15 0.15 75 1011.1
20260505174203 27 227 8.0 19.3 0.00 0.00 0.00 44 1017.7
20260505174056 -17 269 4.8 4.8 0.00 0.00 0.00 1015.3
20260505173553 -17 288 1.6 1.6 0.00 0.00 0.00 1015.2
20260505173050 -17 192 1.6 4.8 0.00 0.00 0.00 1015.4
20260505173044 16 250 17.7 22.5 0.00 0.15 0.15 73 1011.2
20260505172548 -17 170 6.4 9.7 0.00 0.00 0.00 1015.4
20260505172204 27 297 8.0 22.5 0.00 0.00 0.00 44 1017.9
20260505172044 -17 186 8.0 11.3 0.00 0.00 0.00 1015.5
20260505171703 26 49 9.7 27.4 0.00 0.00 0.00 45 1018.0
20260505171547 16 276 16.1 25.7 0.00 0.15 0.15 73 1011.3
20260505171539 -17 224 1.6 1.6 0.00 0.00 0.00 1015.4
20260505171036 -17 313 0.0 1.6 0.00 0.00 0.00 1015.3
20260505170704 27 214 4.8 14.5 0.00 0.00 0.00 45 1018.0
20260505170533 -17 336 3.2 3.2 0.00 0.00 0.00 1015.3
20260505170203 26 306 8.0 16.1 0.00 0.00 0.00 46 1018.1
20260505170042 16 246 16.1 25.7 0.00 0.15 0.15 75 1011.4
20260505170030 -17 65 4.8 9.7 0.00 0.00 0.00 1015.5
20260505165704 26 323 8.0 24.1 0.00 0.00 0.00 46 1018.4
20260505165525 -17 174 4.8 4.8 0.00 0.00 0.00 1015.5
20260505165203 26 277 9.7 20.9 0.00 0.00 0.00 47 1018.3
20260505165021 -17 263 3.2 4.8 0.00 0.00 0.00 1015.3
20260505164703 26 184 9.7 20.9 0.00 0.00 0.00 48 1018.3
20260505164547 16 250 12.9 24.1 0.00 0.15 0.15 74 1011.3
20260505164517 -17 164 4.8 8.0 0.00 0.00 0.00 1015.4
20260505164204 26 313 9.7 20.9 0.00 0.00 0.00 48 1018.3
20260505164015 -17 175 8.0 9.7 0.00 0.00 0.00 1015.3
20260505163703 26 281 4.8 16.1 0.00 0.00 0.00 48 1018.3
20260505163514 -17 200 4.8 4.8 0.00 0.00 0.00 1015.3
20260505163204 26 283 9.7 16.1 0.00 0.00 0.00 47 1018.4
20260505163046 16 269 19.3 30.6 0.00 0.15 0.15 73 1011.2
20260505163010 -17 33 1.6 1.6 0.00 0.00 0.00 1015.4
20260505162703 26 261 8.0 20.9 0.00 0.00 0.00 47 1018.6
20260505162503 -17 168 4.8 4.8 0.00 0.00 0.00 1015.6
20260505162203 26 297 4.8 11.3 0.00 0.00 0.00 48 1018.5
20260505162000 -17 65 1.6 1.6 0.00 0.00 0.00 1015.2
20260505161703 26 147 4.8 11.3 0.00 0.00 0.00 49 1018.6
20260505161541 17 282 16.1 27.4 0.00 0.15 0.15 72 1011.3
20260505161456 -17 109 4.8 4.8 0.00 0.00 0.00 1015.6
20260505161203 25 272 8.0 22.5 0.00 0.00 0.00 50 1018.5
20260505160954 -17 307 1.6 1.6 0.00 0.00 0.00 1015.6
20260505160452 -17 267 3.2 3.2 0.00 0.00 0.00 1015.5
20260505160204 25 147 11.3 25.7 0.00 0.00 0.00 51 1018.5
20260505153203 25 311 8.0 20.9 0.00 0.00 0.00 52 1018.7
20260505153044 17 263 14.5 30.6 0.00 0.18 0.15 71 1011.3
20260505152928 -17 148 8.0 9.7 0.00 0.00 0.00 1015.7
20260505152703 24 257 4.8 16.1 0.00 0.00 0.00 53 1018.6
20260505152425 -17 180 3.2 3.2 0.00 0.00 0.00 1015.3
20260505152203 24 190 6.4 20.9 0.00 0.00 0.00 52 1018.9
20260505151920 -17 211 1.6 3.2 0.00 0.00 0.00 1015.4
20260505151703 24 259 8.0 20.9 0.00 0.00 0.00 53 1018.8
20260505151539 16 298 16.1 27.4 0.00 0.18 0.15 77 1011.4
20260505151416 -17 172 14.5 20.9 0.00 0.00 0.00 1015.4
20260505151204 24 287 8.0 19.3 0.00 0.00 0.00 54 1018.7
20260505150914 -17 162 4.8 4.8 0.00 0.00 0.00 1015.2
20260505150410 -17 210 6.4 8.0 0.00 0.00 0.00 1015.3
20260505150203 23 282 6.4 19.3 0.00 0.00 0.00 54 1018.9
20260505140334 -17 225 3.2 3.2 0.00 0.00 0.00 1015.3
20260505140204 21 291 8.0 19.3 0.00 0.00 0.00 59 1018.9
20260505130258 -17 74 1.6 1.6 0.00 0.00 0.00 1015.1
20260505130203 19 289 11.3 33.8 0.00 0.00 0.00 66 1019.2
20260505124748 -17 72 0.0 1.6 0.00 0.00 0.00 1015.2
20260505124704 19 291 9.7 19.3 0.00 0.00 0.00 66 1019.1
20260505124534 18 260 20.9 27.4 0.00 0.18 0.15 77 1011.7
20260505124245 -17 33 1.6 3.2 0.00 0.00 0.00 1015.2
20260505124203 18 296 6.4 19.3 0.00 0.00 0.00 67 1019.1
20260505123740 -17 83 1.6 1.6 0.00 0.00 0.00 1015.2
20260505123704 18 280 9.7 19.3 0.00 0.00 0.00 67 1019.2
20260505123237 -17 38 0.0 0.0 0.00 0.00 0.00 1015.1
20260505123046 17 240 17.7 25.7 0.00 0.18 0.15 78 1011.6
20260505122734 -17 44 1.6 1.6 0.00 0.00 0.00 1014.9
20260505122703 18 268 6.4 14.5 0.00 0.00 0.00 68 1019.1
20260505122231 -17 54 0.0 1.6 0.00 0.00 0.00 1014.9
20260505122204 18 243 4.8 14.5 0.00 0.00 0.00 69 1018.9
20260505121728 -17 72 0.0 0.0 0.00 0.00 0.00 1015.1
20260505121535 18 263 16.1 25.7 0.00 0.18 0.15 78 1011.6
20260505121224 -17 65 1.6 1.6 0.00 0.00 0.00 1014.9
20260505121204 17 148 4.8 14.5 0.00 0.00 0.00 70 1018.8
20260505120721 -17 41 0.0 0.0 0.00 0.00 0.00 1015.0
20260505120704 17 264 4.8 16.1 0.00 0.00 0.00 70 1018.9
20260505120217 -17 37 0.0 0.0 0.00 0.00 0.00 1014.9
20260505120039 17 248 12.9 24.1 0.00 0.18 0.15 80 1011.5
20260505115716 -17 67 0.0 0.0 0.00 0.00 0.00 1014.9